TimeAKST,TemperatureF,Dew PointF,Humidity,Sea Level PressureIn,VisibilityMPH,Wind Direction,Wind SpeedMPH,Gust SpeedMPH,PrecipitationIn,Events,Conditions,WindDirDegrees,DateUTC
12:16 AM,1.4,-0.4,92,29.69,5.0,ESE,6.9,-,N/A,,Overcast,110,2013-01-31 09:16:00
12:36 AM,1.4,-0.4,92,29.69,2.5,East,4.6,-,N/A,,Overcast,100,2013-01-31 09:36:00
12:56 AM,1.4,-0.4,92,29.70,2.0,ESE,3.5,-,N/A,,Overcast,120,2013-01-31 09:56:00
1:16 AM,1.4,-0.4,92,29.70,3.0,SE,4.6,-,N/A,,Overcast,130,2013-01-31 10:16:00
1:36 AM,3.2,-0.4,85,29.70,2.0,East,3.5,-,N/A,,Overcast,100,2013-01-31 10:36:00
1:56 AM,3.2,-0.4,85,29.71,2.0,ESE,4.6,-,N/A,,Overcast,120,2013-01-31 10:56:00
2:16 AM,3.2,-0.4,85,29.71,2.0,ESE,5.8,-,N/A,,Overcast,110,2013-01-31 11:16:00
2:36 AM,3.2,-0.4,85,29.71,3.0,ESE,4.6,-,N/A,,Overcast,110,2013-01-31 11:36:00
2:56 AM,3.2,-0.4,85,29.71,1.8,Calm,Calm,-,N/A,,Overcast,0,2013-01-31 11:56:00
3:16 AM,3.2,-0.4,85,29.72,5.0,SSE,3.5,-,N/A,,Overcast,150,2013-01-31 12:16:00
3:36 AM,3.2,-0.4,85,29.72,2.0,Calm,Calm,-,N/A,,Overcast,0,2013-01-31 12:36:00
3:56 AM,3.2,-0.4,85,29.73,2.0,ESE,3.5,-,N/A,,Overcast,120,2013-01-31 12:56:00
4:16 AM,3.2,-0.4,85,29.73,5.0,Calm,Calm,-,N/A,,Overcast,0,2013-01-31 13:16:00
4:36 AM,3.2,1.4,92,29.73,5.0,ESE,4.6,-,N/A,,Overcast,120,2013-01-31 13:36:00
4:56 AM,3.2,-0.4,85,29.73,6.0,SE,3.5,-,N/A,,Overcast,130,2013-01-31 13:56:00
5:16 AM,3.2,-0.4,85,29.74,9.0,Calm,Calm,-,N/A,,Mostly Cloudy,0,2013-01-31 14:16:00
5:36 AM,3.2,1.4,92,29.75,10.0,Calm,Calm,-,N/A,,Overcast,0,2013-01-31 14:36:00
5:56 AM,3.2,-0.4,85,29.75,10.0,Calm,Calm,-,N/A,,Overcast,0,2013-01-31 14:56:00
6:16 AM,3.2,-0.4,85,29.76,7.0,Calm,Calm,-,N/A,,Overcast,0,2013-01-31 15:16:00
6:36 AM,3.2,1.4,92,29.76,3.0,Calm,Calm,-,N/A,,Overcast,0,2013-01-31 15:36:00
6:56 AM,3.2,-0.4,85,29.76,9.0,Calm,Calm,-,N/A,,Overcast,0,2013-01-31 15:56:00
7:16 AM,3.2,1.4,92,29.77,4.0,Calm,Calm,-,N/A,,Overcast,0,2013-01-31 16:16:00
7:36 AM,3.2,-0.4,85,29.78,3.0,Calm,Calm,-,N/A,,Overcast,0,2013-01-31 16:36:00
7:56 AM,3.2,1.4,92,29.78,3.0,Calm,Calm,-,N/A,,Overcast,0,2013-01-31 16:56:00
8:16 AM,3.2,1.4,92,29.80,6.0,Calm,Calm,-,N/A,,Overcast,0,2013-01-31 17:16:00
8:36 AM,3.2,1.4,92,29.80,5.0,Calm,Calm,-,N/A,,Overcast,0,2013-01-31 17:36:00
8:56 AM,3.2,1.4,92,29.81,6.0,Calm,Calm,-,N/A,,Overcast,0,2013-01-31 17:56:00
9:16 AM,3.2,-0.4,85,29.82,4.0,Calm,Calm,-,N/A,,Overcast,0,2013-01-31 18:16:00
9:36 AM,3.2,1.4,92,29.83,3.0,Calm,Calm,-,N/A,,Overcast,0,2013-01-31 18:36:00
9:56 AM,3.2,1.4,92,29.84,5.0,Calm,Calm,-,N/A,,Overcast,0,2013-01-31 18:56:00
10:16 AM,5.0,1.4,85,29.84,3.0,Calm,Calm,-,N/A,,Mostly Cloudy,0,2013-01-31 19:16:00
10:36 AM,3.2,1.4,92,29.86,4.0,Calm,Calm,-,N/A,,Overcast,0,2013-01-31 19:36:00
10:56 AM,5.0,1.4,85,29.87,4.0,Calm,Calm,-,N/A,,Overcast,0,2013-01-31 19:56:00
11:16 AM,5.0,-0.4,78,29.87,9.0,Calm,Calm,-,N/A,,Overcast,0,2013-01-31 20:16:00
11:36 AM,5.0,1.4,85,29.88,10.0,Calm,Calm,-,N/A,,Overcast,0,2013-01-31 20:36:00
11:56 AM,5.0,1.4,85,29.89,10.0,Calm,Calm,-,N/A,,Overcast,0,2013-01-31 20:56:00
12:16 PM,5.0,1.4,85,29.90,10.0,Calm,Calm,-,N/A,,Overcast,0,2013-01-31 21:16:00
12:36 PM,6.8,1.4,79,29.90,8.0,Calm,Calm,-,N/A,,Overcast,0,2013-01-31 21:36:00
12:56 PM,6.8,3.2,85,29.91,6.0,Calm,Calm,-,N/A,,Overcast,0,2013-01-31 21:56:00
1:16 PM,6.8,3.2,85,29.91,10.0,Calm,Calm,-,N/A,,Overcast,0,2013-01-31 22:16:00
1:36 PM,6.8,3.2,85,29.92,10.0,Calm,Calm,-,N/A,,Overcast,0,2013-01-31 22:36:00
1:56 PM,6.8,1.4,79,29.92,10.0,Calm,Calm,-,N/A,,Overcast,0,2013-01-31 22:56:00
2:16 PM,6.8,3.2,85,29.92,10.0,Calm,Calm,-,N/A,,Overcast,0,2013-01-31 23:16:00
2:36 PM,6.8,3.2,85,29.93,10.0,Calm,Calm,-,N/A,,Overcast,0,2013-01-31 23:36:00
2:56 PM,6.8,3.2,85,29.94,10.0,Calm,Calm,-,N/A,,Overcast,0,2013-01-31 23:56:00
3:16 PM,8.6,3.2,79,29.94,10.0,Calm,Calm,-,N/A,,Overcast,0,2013-02-01 00:16:00
3:36 PM,8.6,5.0,85,29.95,8.0,Calm,Calm,-,N/A,,Overcast,0,2013-02-01 00:36:00
3:56 PM,8.6,3.2,79,29.96,10.0,Calm,Calm,-,N/A,,Overcast,0,2013-02-01 00:56:00
4:16 PM,8.6,5.0,85,29.96,10.0,Calm,Calm,-,N/A,,Overcast,0,2013-02-01 01:16:00
4:36 PM,8.6,5.0,85,29.97,9.0,Calm,Calm,-,N/A,,Overcast,0,2013-02-01 01:36:00
5:16 PM,10.4,6.8,85,29.98,6.0,Calm,Calm,-,N/A,,Overcast,0,2013-02-01 02:16:00
5:36 PM,10.4,6.8,85,29.99,10.0,Calm,Calm,-,N/A,,Overcast,0,2013-02-01 02:36:00
6:16 PM,8.6,6.8,92,30.00,10.0,Calm,Calm,-,N/A,,Overcast,0,2013-02-01 03:16:00
6:36 PM,10.4,6.8,85,30.00,10.0,Calm,Calm,-,N/A,,Overcast,0,2013-02-01 03:36:00
6:56 PM,8.6,6.8,92,30.01,10.0,Calm,Calm,-,N/A,,Overcast,0,2013-02-01 03:56:00
7:16 PM,10.4,6.8,85,30.01,10.0,Calm,Calm,-,N/A,,Overcast,0,2013-02-01 04:16:00
7:36 PM,8.6,5.0,85,30.01,10.0,Calm,Calm,-,N/A,,Overcast,0,2013-02-01 04:36:00
7:56 PM,8.6,6.8,92,30.02,10.0,Calm,Calm,-,N/A,,Overcast,0,2013-02-01 04:56:00
8:16 PM,8.6,6.8,92,30.02,10.0,Calm,Calm,-,N/A,,Overcast,0,2013-02-01 05:16:00
8:36 PM,8.6,6.8,92,30.02,10.0,Calm,Calm,-,N/A,,Overcast,0,2013-02-01 05:36:00
8:56 PM,8.6,6.8,92,30.02,10.0,Calm,Calm,-,N/A,,Overcast,0,2013-02-01 05:56:00
9:16 PM,10.4,6.8,85,30.03,10.0,Calm,Calm,-,N/A,,Overcast,0,2013-02-01 06:16:00
9:36 PM,10.4,6.8,85,30.03,10.0,Calm,Calm,-,N/A,,Overcast,0,2013-02-01 06:36:00
9:56 PM,10.4,6.8,85,30.04,10.0,Calm,Calm,-,N/A,,Overcast,0,2013-02-01 06:56:00
10:16 PM,8.6,5.0,85,30.04,10.0,Calm,Calm,-,N/A,,Mostly Cloudy,0,2013-02-01 07:16:00
10:36 PM,8.6,6.8,92,30.04,10.0,Calm,Calm,-,N/A,,Clear,0,2013-02-01 07:36:00
10:56 PM,6.8,3.2,85,30.05,10.0,Calm,Calm,-,N/A,,Clear,0,2013-02-01 07:56:00
11:16 PM,8.6,6.8,92,30.06,10.0,Calm,Calm,-,N/A,,Clear,0,2013-02-01 08:16:00
11:36 PM,6.8,3.2,85,30.07,10.0,Calm,Calm,-,N/A,,Clear,0,2013-02-01 08:36:00
11:56 PM,3.2,1.4,92,30.07,10.0,Calm,Calm,-,N/A,,Clear,0,2013-02-01 08:56:00